Regional Weather Roundup
Issued by NWS

Home | Current Version | Previous Version | Text Only | Print | Product List | Glossary On
Versions: 1 2 3 4 5 6 7 8 9 10 11 12 13 14 15 16 17 18 19 20 21 22 23 24 25 26 27 28 29 30 31 32 33 34 35 36 37 38 39 40 41 42 43 44 45 46 47 48 49 50
000
ASUS43 KMPX 161201
RWRMN
WEATHER ROUNDUP FOR MINNESOTA
NATIONAL WEATHER SERVICE TWIN CITIES/CHANHASSEN MN
600 AM CST MON JAN 16 2017


NOTE: "FAIR" INDICATES FEW OR NO CLOUDS BELOW 12,000 FEET WITH NO
SIGNIFICANT WEATHER AND/OR OBSTRUCTIONS TO VISIBILITY. N/A MEANS
CURRENT SKY AND/OR WEATHER CONDITIONS ARE NOT AVAILABLE.

MNZ060>063-068>070-161300-
   Twin Cities Metro

CITY           SKY/WX    TMP DP  RH WIND       PRES   REMARKS
TWIN CITIES    PTCLDY    18  13  80 SE5       30.17F WCI  11
6HR MIN TEMP:  14; 6HR MAX TEMP:  22;

ST PAUL        CLOUDY    13  12  96 E3        30.19F
CRYSTAL        CLOUDY    11   8  88 N3        30.17R FOG
BLAINE         CLOUDY    16  16 100 CALM      30.17R FOG
LAKEVILLE        N/A     12  12 100 CALM      30.16F
EDEN PRAIRIE   CLOUDY    16  12  84 CALM      30.15F
6HR MIN TEMP:  16; 6HR MAX TEMP:  22;

SOUTH ST PAUL  CLOUDY    13  11  91 CALM      30.17F
LAKE ELMO      FAIR      14  12  92 CALM      30.19R
$$
MNZ001>005-007-008-013>017-022>024-027-028-161300-
   Northwest Minnesota

CITY           SKY/WX    TMP DP  RH WIND       PRES   REMARKS
BEMIDJI        CLOUDY     2  -1  86 NW3       30.04R FOG
HALLOCK        CLOUDY     5   0  78 S10       29.99F WCI -10
ROSEAU         CLOUDY     7   1  78 S6        30.00R WCI  -3
WARROAD        PTCLDY    10   7  85 SW6       30.00S WCI   1
THIEF RVR FALL CLOUDY     8   5  87 S14       30.03S WCI  -8
CROOKSTON      CLOUDY     5   1  85 S7        30.06S WCI  -7
FOSSTON        CLOUDY    10   9  92 S12       30.04S WCI  -4
DETROIT LAKES  CLOUDY    14  10  85 CALM      30.08R FOG
MOORHEAD       CLOUDY    12   9  85 S10       30.08F WCI  -1
PARK RAPIDS    CLOUDY     5   0  79 S7        30.06S HAZE    WCI  -7
MAHNOMEN       FAIR      13  10  87 S12       30.04F WCI   0
$$
MNZ006-009>011-018-025>026-161300-
   North Central Minnesota

CITY           SKY/WX    TMP DP  RH WIND       PRES   REMARKS
BAUDETTE       CLOUDY     7   4  87 SE5       30.01R WCI  -2
FLAG ISLAND    CLOUDY     7   3  85 SE6       30.00S WCI  -3
INTL FALLS     CLOUDY     3   0  87 CALM      30.03S
6HR MIN TEMP:   0; 6HR MAX TEMP:  16;

WASKISH        CLOUDY     9   5  85 CALM      30.03R
BIG FORK       CLOUDY    10   9  92 SW3       30.04R FOG
LONGVILLE      CLOUDY     0  -4  85 S5        30.07F WCI -10
GRAND RAPIDS   CLOUDY    13  11  92 S7        30.09S FOG     WCI   3
CRANE LAKE     CLOUDY     3   1  92 CALM      30.07S
ORR            CLOUDY    12  10  92 CALM      30.02F
COOK           CLOUDY     3   1  92 CALM      30.06S
WALKER         FAIR      15  13  92 S6        30.04F WCI   6
$$
MNZ012-019>021-037-161300-
   Northeast Minnesota

CITY           SKY/WX    TMP DP  RH WIND       PRES   REMARKS
DULUTH         CLOUDY    15  13  91 W8        30.10R FOG     WCI   4
6HR MIN TEMP:  15; 6HR MAX TEMP:  21;

ELY            CLOUDY     9   7  92 CALM      30.06S FOG
HIBBING        CLOUDY    -7 -10  87 CALM      30.08R
EVELETH        CLOUDY    -3  -8  79 CALM      30.09S
DULUTH HARBOR  CLOUDY    16  12  86 CALM      30.16S FOG
TWO HARBORS    CLOUDY    18  12  79 SW5       30.09S HAZE    WCI  11
SILVER BAY     CLOUDY    10   9  92 CALM      30.08S FOG
GRAND MARAIS     N/A     24  15  68 W6        30.10S WCI  17
G MARAIS ARPRT CLOUDY    18  10  73 SW5       30.02F WCI  11
$$
MNZ029>031-032-039>041-046>048-054>057-064-161300-
   West Central Minnesota

CITY           SKY/WX    TMP DP  RH WIND       PRES   REMARKS
FERGUS FALLS   CLOUDY    14  10  85 SE8       30.15S WCI   3
WHEATON        CLOUDY     9   7  92 S3        30.12F
MORRIS         CLOUDY    10   7  85 SE9       30.10F FOG     WCI  -2
ALEXANDRIA     CLOUDY    10   9  95 S7        30.10S FOG     WCI  -1
ELBOW LAKE     FAIR      14  12  91 E6        30.11S FOG     WCI   5
WADENA         CLOUDY     1  -2  85 CALM      30.08S FOG
GLENWOOD       CLOUDY    16  12  86 CALM      30.12S
APPLETON       CLOUDY     7   3  85 CALM      30.13S
ORTONVILLE     CLOUDY    10   7  85 CALM      30.11S
MADISON        PTCLDY    12  10  92 CALM      30.13S
WILLMAR        FAIR      14  12  92 CALM      30.14S
$$
MNZ033>034-036-042>043-049>051-058-059-161300-
   Central Minnesota

CITY           SKY/WX    TMP DP  RH WIND       PRES   REMARKS
ST CLOUD       CLOUDY     6   4  91 CALM      30.15S FOG
6HR MIN TEMP:   6; 6HR MAX TEMP:  18;

SAUK CENTRE    FAIR       4   2  93 CALM      30.13S FOG
PAYNESVILLE    CLOUDY    12  11  98 CALM      30.14R
AITKIN         CLOUDY     3  -2  78 CALM      30.10F
PINE RIVER     CLOUDY     3   1  92 CALM      30.12S FOG
BRAINERD       CLOUDY     3   2  95 S3        30.11F FOG
STAPLES        CLOUDY     0  -4  85 CALM      30.10S
LONG PRAIRIE   FAIR       5   3  92 SE3       30.12S FOG
LITTLE FALLS   CLOUDY     1  -4  78 CALM      30.14F
LITCHFIELD     CLOUDY    18  16  93 CALM      30.15R
BUFFALO        CLOUDY    12  10  91 CALM      30.17R
MAPLE LAKE     CLOUDY    13  11  94 CALM      30.17R FOG
HUTCHINSON     CLOUDY    13  11  95 CALM      30.15S
$$
MNZ037-044-045-052-053-161300-
   East Central Minnesota

CITY           SKY/WX    TMP DP  RH WIND       PRES   REMARKS
PRINCETON      CLOUDY     9   7  92 CALM      30.16F FOG
MORA           CLOUDY     1  -4  78 CALM      30.18F
CAMBRIDGE      CLOUDY    12   7  79 CALM      30.16S HAZE
RUSH CITY        N/A      5   3  92 CALM      30.18S
MOOSE LAKE     CLOUDY     5   3  92 CALM      30.13S FOG
HINCKLEY       FAIR       1  -2  85 CALM      30.16F
CLOQUET        CLOUDY    16  12  86 SW6       30.11S FOG     WCI   7
MCGREGOR       CLOUDY     9   7  92 S3        30.12F
$$
MNZ071>073-080-081-089-090-097-098-161300-
   Southwest Minnesota

CITY           SKY/WX    TMP DP  RH WIND       PRES   REMARKS
MONTEVIDEO     CLOUDY    16  12  86 CALM      30.14S
GRANITE FALLS  CLOUDY    14  12  90 NE3       30.15R
CANBY            N/A     24  18  77 CALM      30.12R
MARSHALL       CLOUDY    21  16  81 S6        30.11S WCI  13
REDWOOD FALLS  CLOUDY    17  13  84 S8        30.13F WCI   7
OLIVIA         CLOUDY    18  16  93 CALM      30.13S
PIPESTONE      CLOUDY    19  16  86 CALM      30.08S
WINDOM         CLOUDY    27  23  86 CALM      30.10F
WORTHINGTON    CLOUDY    26  24  92 CALM      30.10S
JACKSON        CLOUDY    27  23  86 CALM      30.11R
TRACY          CLOUDY    22  18  85 SW9       30.10S WCI  12
SLAYTON        CLOUDY    17  15  93 CALM      30.10S
$$
MNZ065>067-074>077-082>085-091>093-161300-
   South Central Minnesota

CITY           SKY/WX    TMP DP  RH WIND       PRES   REMARKS
MANKATO        PTCLDY    18  15  88 SE5       30.15F WCI  11
NEW ULM        CLOUDY    19  16  86 CALM      30.13F
ST JAMES       CLOUDY    23  21  93 E3        30.14S
FAIRMONT       CLOUDY    27  25  92 S9        30.12F WCI  18
GLENCOE        CLOUDY    18  17  95 CALM      30.14F
FARIBAULT        N/A     14  10  85 CALM      30.15F
OWATONNA       CLOUDY    19  14  79 CALM      30.14S
WASECA         CLOUDY    21  18  86 E3        30.14F
ALBERT LEA     MIX PCPN  27  25  93 S7        30.13F WCI  19
$$
MNZ078>079-086>088-094>096-161300-
   Southeast Minnesota

CITY           SKY/WX    TMP DP  RH WIND       PRES   REMARKS
ROCHESTER      CLOUDY    23  18  81 SE6       30.15F WCI  16
6HR MIN TEMP:  16; 6HR MAX TEMP:  24;

RED WING       PTCLDY    12  10  92 CALM      30.19S FOG
STANTON        CLOUDY    16  10  76 CALM      30.15F
DODGE CENTER   CLOUDY    18  14  86 CALM      30.14S
WINONA         PTCLDY    16  14  93 CALM      30.23S
AUSTIN         MIX PCPN  27  25  93 S6        30.13F WCI  20
PRESTON        MIX PCPN  26  23  87 S10       30.15F WCI  16
$$
ABBREVIATIONS USED IN REMARKS
   TC - TEMPERATURES IN CELSIUS
  WCI - WIND CHILL INDEX
   HX - HEAT INDEX
  VSB - VISIBILITY
$$



USA.gov is the U.S. government's official web portal to all federal, state and local government web resources and services.